Regional Weather Roundup
Issued by NWS Spokane, WA

Home | Current Version | Previous Version | Text Only | Print | Product List | Glossary On
Versions: 1 2 3 4 5 6 7 8 9 10 11 12 13 14 15 16 17 18 19 20 21 22 23 24 25 26 27 28 29 30 31 32 33 34 35 36 37 38 39 40 41 42 43 44 45 46 47 48 49 50
913
NZUS01 KOTX 061957
RWROTX
EASTERN WASHINGTON/NORTHERN IDAHO ROUNDUP
NATIONAL WEATHER SERVICE, SPOKANE WA
1200 PM PST SAT FEB 06 2016

Note: "fair" indicated few or no clouds below 12,000 feet with no
significant weather and/or obstructions to visibility.

...NORTHEAST WASHINGTON AND NORTHERN IDAHO PANHANDLE...

CITY           SKY/WX    TMP DP  RH WIND       PRES   REMARKS
SPOKANE INTL   CLOUDY    37  30  75 SW16      30.34F
SPOKANE DOWNTO CLOUDY    41  31  67 SW8       30.37S
DEER PARK      CLOUDY    36  30  79 S13       30.35S

...SOUTHEAST WASHINGTON AND SOUTHERN IDAHO PANHANDLE...

CITY           SKY/WX    TMP DP  RH WIND       PRES   REMARKS
WALLA WALLA    CLOUDY    48  31  51 W10       30.44F
PULLMAN/MOSCOW CLOUDY    41  31  67 SW15      30.40S
LOWELL           N/A     42  38  85 CALM      30.43F

...COLUMBIA BASIN...

CITY           SKY/WX    TMP DP  RH WIND       PRES   REMARKS
EPHRATA        CLOUDY    45  32  60 VRB3      30.38R
MOSES LAKE     CLOUDY    45  31  58 SW13      30.40S
TRI CITIES     CLOUDY    49  35  58 SW8       30.44F
HERMISTON      CLOUDY    51  32  48 W10       30.44F
PENDLETON      CLOUDY    48  29  47 W12       30.43F

...EAST SLOPES CASCADES...

CITY           SKY/WX    TMP DP  RH WIND       PRES   REMARKS
THE DALLES     CLOUDY    53  36  52 N10       30.46S
YAKIMA         CLOUDY    51  29  42 SE5       30.41F
ELLENSBURG     CLOUDY    43  30  60 VRB3      30.40S
OMAK           CLOUDY    38  29  70 S5        30.37R

...SOUTHERN BRITISH COLUMBIA...

CITY           SKY/WX    TMP DP  RH WIND       PRES   REMARKS

...WESTERN MONTANA...

CITY           SKY/WX    TMP DP  RH WIND       PRES   REMARKS
MISSOULA       CLOUDY    37  28  70 S5        30.31S

...NEIGHBORING CITIES...

CITY           SKY/WX    TMP DP  RH WIND       PRES   REMARKS
SEATTLE        CLOUDY    47  39  74 SW12      30.47S



USA.gov is the U.S. government's official web portal to all federal, state and local government web resources and services.